Location: Waning Moon II Observatory
(30.3730°N, 89.7620°W)
Time: 01:42:46
(UTC-05:00)

Cosmos 1825 Rocket - Visible Passes

Search period start: 29 September 2016 00:00
Search period end: 09 October 2016 00:00
Orbit: 603 x 632 km, 82.5° (Epoch: 27 September)

Date Brightness Start Highest point End Pass type
(mag) Time Alt. Az. Time Alt. Az. Time Alt. Az.
29 Sep 4.4 05:53:04 10° S 05:57:22 54° E 06:01:38 10° NNE visible
30 Sep 3.5 06:09:54 10° SSW 06:14:17 72° W 06:18:40 10° N visible
01 Oct 6.8 04:51:40 10° ESE 04:53:50 14° E 04:56:01 10° ENE visible
01 Oct 4.2 06:27:18 10° SW 06:31:18 34° W 06:35:17 10° NNW visible
02 Oct 5.7 05:06:56 10° SSE 05:10:37 27° E 05:14:18 10° NNE visible
03 Oct 4.2 05:23:11 10° S 05:27:28 55° E 05:31:44 10° NNE visible
04 Oct 3.4 05:40:02 10° SSW 05:44:24 70° W 05:48:45 10° N visible
05 Oct 6.6 04:21:44 10° ESE 04:23:56 14° E 04:26:09 10° ENE visible
05 Oct 4.2 05:57:26 10° SW 06:01:24 33° W 06:05:21 10° NNW visible
06 Oct 5.5 04:37:04 10° SSE 04:40:43 27° E 04:44:24 10° NNE visible
06 Oct 5.0 06:15:37 10° WSW 06:18:29 17° WNW 06:21:22 10° NW visible
07 Oct 4.1 04:56:31 43° SE 04:57:34 56° E 05:01:49 10° NNE visible
08 Oct 3.6 05:15:10 57° NNW 05:15:10 57° NNW 05:18:49 10° N visible
